SPACEBEE-4 (43139 NORAD) Tracking and Keplerian Element Data

This shows tracking and keplerian element data for the satellite.

Feedback or suggestion? Click here.




ElementValue
Catalog43139
NameSPACEBEE-4
Epoch Orbit27118
Epoch Day325.20250639
Epoch Year2022
RAAN54.111
Inclination97.3685
Eccentricity0.00026
Argument of Perigee239.7267
Mean Anonmoly120.3742
Mean Motion15.76511848
Decay Rate0.00302677
L11 43139U 18004AE 22325.20250639 .00302677 00000+0 18497-2 0 9999
L22 43139 97.3685 54.1110 0002600 239.7267 120.3742 15.76511848271180



Live tracking and technical data element details for SPACEBEE-4 (NORAD 43139). SPACEBEE-4 can be tracked NOW for your location showing map with azimuth and elevation plus other details from your city location.







IsCatalogInMostPopularTable: catalog: 43139, numindb: 553
Update: records affected: 1



GetName: 43139 SPACEBEE-4

Hit Count: updated at: Thu, 15 May 2025 18:14:30 GMT